DELTA 1 DEB, 21356

Orbit data source: Space-Track

DELTA 1 DEB, 21356 is space debris in SSO originally from a launch on Thu, 12 Jun 1975 UTC launched from the Air Force Western Test Range (AFWTR). Debris objects in space refer to the collection of defunct objects orbiting the Earth. Examples of debris include non-operational satellites, rocket bodies, and fragments generated from explosions, collisions, or faulty payload assembly.

Loading next visibility...
Identifier
21356, 1975-052CA
Orbit
SSO
Country
Flag of USUS
Related business
Manufacturer
Unknown
Mission
Spacecraft
Bus & Motor
Unknown
Mass
Unknown
Launch date (UTC)
1975-06-12 (51 years ago)
Launch vehicle
Unknown
Launch site
Air Force Western Test Range (AFWTR)
Object type
Payload
Rocket body
Debris
Shape & HBR
Unknown shape, 0.1 m
Radar Cross Section
Small (<0.1 m²)

Expand to show TLE details & history
Last TLE update: 14 hours ago

TLE from 14 hours ago
0 DELTA 1 DEB
1 21356U 75052CA  25350.28800171  .00000112  00000-0  31814-3 0  9992
2 21356  99.7242 273.6258 0093150   1.1017 152.9806 13.30740260677875
Epoch: 2025-12-16T06:54Z
TLE epoch observation values (Epoch: 2025-12-16T06:54:43.347Z)
Latitude
25.07525°
Longitude
-90.65328°
Altitude
1,209.438 km
Speed
7.221 km/s
True Right ascension
06h 32m 48s
True Declination
24° 57' 05"
Sunlit
Object was in full shadow at epoch
Visualization orbit readout
Latitude
Unknown
Longitude
Unknown
Altitude
Unknown
Speed
Unknown
Apparent Right ascension
Unknown
Apparent Declination
Unknown
Sunlit
N/A
Visualization observer readout
Local Sidereal Time
19:42:36
Azimuth
Unknown
Elevation
Unknown
Doppler factor
Unknown
Orbital elements
Apogee altitude
1,211.344 km
Perigee altitude
1,071.257 km
Semi-major axis
7,519.437 km
Eccentricity
0.00932
Inclination
99.7242°
RAAN
273.6258°
Arg. of periapsis
1.1017°
True anomaly
153.46053°
Mean anomaly
152.9806°
Eccentric anomaly
153.22106°
Mean motion
3.32863 °/min
Orbital period
108.15 mins
BSTAR
0.00031814
Loading maneuver chart data...
Computing Atmospheric mass density...
Loading historical data...
Loading historical data...
Loading historical data...
Loading historical data...
Loading historical data...
Loading historical data...
Loading historical data...

Documentation

Showing up to 5 results
|